Location: London
(51.5074°N, 0.1278°W)
Time: 22:06:36
(UTC+01:00)

DELFI C3 - Pass Details

Date: 05 October 2020
Orbit: 535 x 549 km, 97.4° (Epoch: 22 October)

Event Time Altitude Azimuth Distance (km) Brightness Sun altitude
Exits shadow 19:27:27 14° 100° (E) 1,584 ? -10.0°
Maximum altitude 19:29:31 20° 62° (ENE) 1,299 ? -10.4°
Drops below altitude 10° 19:32:27 10° 14° (NNE) 1,834 ? -10.8°
Sets 19:34:59 0° 358° (N) 2,735 ? -11.2°
